Simultaneous Nadir Overpasses (SNOs) Predictions

Prediction of SNOs near US between AQUA and NPP Satellite Orbit:

Table of predicted SNOs near US for the next 10.0 days since TLE Epoch: 1/15/2016
Index Date (AQUA) Time (AQUA) AQUA Lat,Lon Date (NPP) Time (NPP) NPP Lat,Lon Distance(km) Time Diff (sec)
1 01/17/2016 07:18:49 49.91, -75.99 01/17/2016 07:22:09 50.34, -78.24 166.84 200
2 01/17/2016 08:57:42 49.92,-100.71 01/17/2016 09:03:36 50.50,-103.54 211.28 354
3 01/19/2016 18:17:00 49.99, -80.22 01/19/2016 18:12:24 49.74, -81.75 113.86 276
4 01/19/2016 19:55:53 49.99,-104.94 01/19/2016 19:53:52 49.63,-107.08 159.08 121
5 01/19/2016 21:30:35 35.01,-124.53 01/19/2016 21:31:01 34.51,-127.06 237.46 26
6 01/22/2016 07:45:42 20.06, -89.53 01/22/2016 07:37:22 19.07, -89.62 110.62 500
7 01/22/2016 09:22:21 28.13,-112.29 01/22/2016 09:16:16 28.20,-112.68 38.78 365
8 01/25/2016 06:30:24 46.37, -65.04 01/25/2016 06:32:18 46.75, -67.06 160.29 114
9 01/25/2016 08:08:17 49.93, -88.35 01/25/2016 08:12:44 50.43, -90.87 187.99 267
10 01/25/2016 09:47:10 49.94,-113.06 01/25/2016 09:54:12 50.54,-116.19 232.38 422




NCC Satellite Simultaneous Nadir Overpasses (SNOs) Prediction Service
